Date String (YYYY-MM-DD hh:mm:ss) UTC,Instrument flags,absolute air pressure of the measurement (hPa),sample flow rate (lpm),inlet stack bypass flow (lpm),air temperature of the measurement (°C),ambient temperature measured by the external sensor (°C),aerosol sample conditioner tube jacket temperature (°C),OPC LED temperature (°C),internal box temperature (°C),relative humidity of the measurement (%),span deviation,mass concentration of particles derived from Lorenz-Mie calculation of OPC scattering (μg/m³),mass concentration of particles derived from Lorenz-Mie calculation of OPC scattering (μg/m³),mass concentration of particles derived from Lorenz-Mie calculation of OPC scattering (μg/m³)
DateTimeUTC,F1_M11,P_M11,Q1_M11,Q2_M11,T1_M11,T2_M11,T3_M11,T4_M11,T5_M11,U1_M11,ZSPAN_M11,X2_M11,X0_M11,X1_M11
2023-11-12 19:00:00,SystemResetWarning,0837.7,4.99,000.00,028.3,027.6,000.0,036.4,029.7,7.0,0000.0,0003.50,0010.97,0002.69
2023-11-12 19:01:00,SystemResetWarning,0837.6,4.99,000.00,028.3,027.6,000.0,036.4,029.7,7.0,0000.0,0003.47,0009.73,0002.67
2023-11-12 19:02:00,SystemResetWarning,0837.6,5.01,000.00,028.3,027.6,000.0,036.4,029.8,7.0,0000.0,0003.45,0009.09,0002.64
2023-11-12 19:03:00,SystemResetWarning,0837.6,5.01,000.00,028.3,027.7,000.0,036.4,029.8,7.2,0000.0,0003.43,0009.06,0002.61
2023-11-12 19:04:00,SystemResetWarning,0837.6,5.00,000.00,028.3,027.7,000.0,036.5,029.8,7.1,0000.0,0003.44,0009.12,0002.59
2023-11-12 19:05:00,SystemResetWarning,0837.6,5.01,000.00,028.4,027.7,000.0,036.5,029.9,7.0,0000.0,0003.40,0009.11,0002.56
2023-11-12 19:06:00,SystemResetWarning,0837.6,5.00,000.00,028.4,027.7,000.0,036.5,029.9,7.0,0000.0,0003.35,0008.97,0002.54
2023-11-12 19:07:00,SystemResetWarning,0837.6,4.99,000.00,028.4,027.8,000.0,036.5,029.9,6.9,0000.0,0003.36,0008.71,0002.54
2023-11-12 19:08:00,SystemResetWarning,0837.6,4.99,000.00,028.4,027.8,000.0,036.5,029.9,6.7,0000.0,0003.34,0007.78,0002.53
2023-11-12 19:09:00,SystemResetWarning,0837.6,5.01,000.00,028.4,027.8,000.0,036.6,029.9,7.0,0000.0,0003.36,0007.96,0002.54
2023-11-12 19:10:00,SystemResetWarning,0837.6,5.00,000.00,028.5,027.8,000.0,036.6,029.9,7.1,0000.0,0003.33,0007.94,0002.55
2023-11-12 19:11:00,SystemResetWarning,0837.6,5.00,000.00,028.5,027.8,000.0,036.6,029.9,7.0,0000.0,0003.34,0007.94,0002.57
2023-11-12 19:12:00,SystemResetWarning,0837.6,5.00,000.00,028.5,027.9,000.0,036.6,030.0,6.9,0000.0,0003.36,0007.97,0002.57
2023-11-12 19:13:00,SystemResetWarning,0837.6,5.00,000.00,028.5,027.9,000.0,036.6,030.0,6.8,0000.0,0003.37,0007.96,0002.57
2023-11-12 19:14:00,SystemResetWarning,0837.6,4.99,000.00,028.6,027.9,000.0,036.7,030.0,6.7,0000.0,0003.40,0008.11,0002.60
2023-11-12 19:15:00,SystemResetWarning,0837.6,4.99,000.00,028.6,027.9,000.0,036.7,030.0,6.6,0000.0,0003.39,0008.04,0002.62
2023-11-12 19:16:00,SystemResetWarning,0837.6,4.99,000.00,028.6,027.9,000.0,036.7,030.1,6.5,0000.0,0003.43,0008.16,0002.60
2023-11-12 19:17:00,SystemResetWarning,0837.5,5.01,000.00,028.6,028.0,000.0,036.7,030.1,6.5,0000.0,0003.47,0008.11,0002.60
2023-11-12 19:18:00,SystemResetWarning,0837.5,5.01,000.00,028.6,028.0,000.0,036.8,030.1,6.5,0000.0,0003.45,0007.75,0002.59
2023-11-12 19:19:00,SystemResetWarning,0837.5,5.00,000.00,028.7,028.0,000.0,036.8,030.2,6.7,0000.0,0003.47,0007.87,0002.56
2023-11-12 19:20:00,SystemResetWarning,0837.5,4.99,000.00,028.7,028.0,000.0,036.8,030.2,6.8,0000.0,0003.44,0007.41,0002.54
2023-11-12 19:21:00,SystemResetWarning,0837.5,5.00,000.00,028.7,028.1,000.0,036.8,030.2,6.7,0000.0,0003.43,0007.72,0002.51
2023-11-12 19:22:00,SystemResetWarning,0837.5,5.01,000.00,028.7,028.1,000.0,036.8,030.2,6.7,0000.0,0003.43,0008.05,0002.48
2023-11-12 19:23:00,SystemResetWarning,0837.5,5.00,000.00,028.8,028.1,000.0,036.8,030.2,6.7,0000.0,0003.42,0008.16,0002.48
2023-11-12 19:24:00,SystemResetWarning,0837.5,5.00,000.00,028.8,028.1,000.0,036.9,030.2,6.7,0000.0,0003.42,0008.57,0002.50
2023-11-12 19:25:00,SystemResetWarning,0837.5,5.00,000.00,028.8,028.1,000.0,036.9,030.3,6.7,0000.0,0003.41,0008.47,0002.52
2023-11-12 19:26:00,SystemResetWarning,0837.4,5.00,000.00,028.8,028.2,000.0,036.9,030.3,6.6,0000.0,0003.43,0008.82,0002.53
2023-11-12 19:27:00,SystemResetWarning,0837.4,5.00,000.00,028.8,028.2,000.0,036.9,030.3,6.5,0000.0,0003.42,0008.68,0002.56
2023-11-12 19:28:00,SystemResetWarning,0837.4,4.99,000.00,028.9,028.2,000.0,037.0,030.4,6.4,0000.0,0003.42,0008.46,0002.59
2023-11-12 19:29:00,SystemResetWarning,0837.4,5.00,000.00,028.9,028.3,000.0,037.0,030.4,6.5,0000.0,0003.46,0008.54,0002.61
2023-11-12 19:30:00,SystemResetWarning,0837.4,5.00,000.00,028.9,028.3,000.0,037.0,030.4,6.7,0000.0,0003.46,0008.51,0002.62
2023-11-12 19:31:00,SystemResetWarning,0837.3,5.00,000.00,028.9,028.3,000.0,037.0,030.4,6.7,0000.0,0003.47,0008.58,0002.63
2023-11-12 19:32:00,SystemResetWarning,0837.3,5.00,000.00,029.0,028.3,000.0,037.0,030.4,6.4,0000.0,0003.51,0008.69,0002.64
2023-11-12 19:33:00,SystemResetWarning,0837.2,5.01,000.00,029.0,028.3,000.0,037.1,030.6,6.4,0000.0,0003.47,0008.27,0002.64
2023-11-12 19:34:00,SystemResetWarning,0837.2,4.99,000.00,029.1,027.7,000.0,037.1,030.7,6.4,0000.0,0003.46,0008.31,0002.63
2023-11-12 19:35:00,SystemResetWarning,0837.2,5.00,000.00,029.0,025.8,000.0,037.0,030.3,6.4,0000.0,0003.45,0008.67,0002.61
2023-11-12 19:36:00,SystemResetWarning,0837.2,5.02,000.00,028.8,024.3,000.0,037.0,029.9,6.5,0000.0,0003.45,0009.41,0002.59
2023-11-12 19:37:00,SystemResetWarning,0837.2,5.00,000.00,028.7,024.4,000.0,036.9,029.6,6.5,0000.0,0003.41,0009.29,0002.57
2023-11-12 19:38:00,SystemResetWarning,0837.2,5.00,000.00,028.5,024.8,000.0,036.9,029.3,6.6,0000.0,0003.39,0009.54,0002.56
2023-11-12 19:39:00,SystemResetWarning,0837.2,4.99,000.00,028.4,025.3,000.0,036.8,029.3,6.6,0000.0,0003.38,0009.83,0002.54
2023-11-12 19:40:00,SystemResetWarning,0837.2,5.00,000.00,028.3,025.7,000.0,036.8,029.4,6.5,0000.0,0003.35,0009.99,0002.53
2023-11-12 19:41:00,SystemResetWarning,0837.2,5.00,000.00,028.3,026.0,000.0,036.7,029.4,6.7,0000.0,0003.30,0009.89,0002.49
2023-11-12 19:42:00,SystemResetWarning,0837.2,5.00,000.00,028.3,026.4,000.0,036.7,029.5,6.8,0000.0,0003.28,0009.80,0002.47
2023-11-12 19:43:00,SystemResetWarning,0837.2,5.00,000.00,028.3,026.6,000.0,036.7,029.6,6.9,0000.0,0003.24,0009.47,0002.45
2023-11-12 19:44:00,SystemResetWarning,0837.2,5.00,000.00,028.3,026.8,000.0,036.7,029.7,6.8,0000.0,0003.26,0009.39,0002.46
2023-11-12 19:45:00,SystemResetWarning,0837.2,5.00,000.00,028.3,027.0,000.0,036.7,029.7,6.9,0000.0,0003.24,0009.41,0002.47
2023-11-12 19:46:00,SystemResetWarning,0837.2,5.00,000.00,028.3,027.2,000.0,036.7,029.8,6.9,0000.0,0003.24,0008.79,0002.49
2023-11-12 19:47:00,SystemResetWarning,0837.2,5.00,000.00,028.4,027.3,000.0,036.7,029.8,6.9,0000.0,0003.21,0008.27,0002.48
2023-11-12 19:48:00,SystemResetWarning,0837.2,5.00,000.00,028.4,027.4,000.0,036.7,029.9,6.7,0000.0,0003.22,0008.51,0002.49
2023-11-12 19:49:00,SystemResetWarning,0837.2,5.00,000.00,028.4,027.5,000.0,036.7,029.9,6.6,0000.0,0003.20,0009.00,0002.48
2023-11-12 19:50:00,SystemResetWarning,0837.3,5.00,000.00,028.5,027.6,000.0,036.7,030.0,6.6,0000.0,0003.20,0009.75,0002.49
2023-11-12 19:51:00,SystemResetWarning,0837.2,5.00,000.00,028.5,027.6,000.0,036.7,030.0,6.6,0000.0,0003.22,0010.14,0002.50
2023-11-12 19:52:00,SystemResetWarning,0837.2,4.99,000.00,028.5,027.7,000.0,036.7,030.0,6.6,0000.0,0003.23,0010.04,0002.54
2023-11-12 19:53:00,SystemResetWarning,0837.2,5.00,000.00,028.6,027.8,000.0,036.7,030.1,6.5,0000.0,0003.24,0010.58,0002.57
2023-11-12 19:54:00,SystemResetWarning,0837.2,5.00,000.00,028.6,027.8,000.0,036.7,030.1,6.6,0000.0,0003.25,0010.60,0002.59
2023-11-12 19:55:00,SystemResetWarning,0837.2,5.00,000.00,028.6,027.9,000.0,036.8,030.1,6.5,0000.0,0003.28,0011.27,0002.60
2023-11-12 19:56:00,SystemResetWarning,0837.2,5.00,000.00,028.7,027.9,000.0,036.8,030.2,6.6,0000.0,0003.30,0011.45,0002.61
2023-11-12 19:57:00,SystemResetWarning,0837.2,5.00,000.00,028.7,028.0,000.0,036.8,030.2,6.6,0000.0,0003.30,0011.39,0002.61
2023-11-12 19:58:00,SystemResetWarning,0837.2,4.99,000.00,028.7,028.0,000.0,036.8,030.2,6.8,0000.0,0003.32,0011.07,0002.61
2023-11-12 19:59:00,SystemResetWarning,0837.2,5.00,000.00,028.7,028.0,000.0,036.8,030.3,6.7,0000.0,0003.35,0010.81,0002.62
